User: anonymous   Login
Location: Caltech
(34.1382°N, 118.1253°W)
Time: 09:41:43
(UTC-07:00)
Language:

Saudisat 1A - Orbit

View from above orbital plane
View from above orbital plane
View from above satellite
View from above satellite

Ground track
Ground track

The orbit data is extracted from the following two-line orbital elements,

1 26546U 00057B   17087.77626436 +.00000379 +00000-0 +54590-4 0  9995
2 26546 064.5541 226.9703 0036319 234.5189 125.2530 14.90481379894671
Epoch (UTC): 28 March 2017 18:37:49
Eccentricity: 0.0036319
inclination: 64.5541°
perigee height: 571 km
apogee height: 622 km
right ascension of ascending node: 226.9703°
argument of perigee: 234.5189°
revolutions per day: 14.90481379
mean anomaly at epoch: 125.2530°
orbit number at epoch: 89467

The dashed part of the orbit path shows where the satellite is in the earth's shadow,  

DLR